Regional Weather Roundup
Issued by NWS Portland, ME

Home | Current Version | Previous Version | Text Only | Print | Product List | Glossary On
Versions: 1 2 3 4 5 6 7 8 9 10 11 12 13 14 15 16 17 18 19 20 21 22 23 24 25 26 27 28 29 30 31 32 33 34 35 36 37 38 39 40 41 42 43 44 45 46 47 48 49 50
000
ASUS41 KGYX 080010
RWRGYX
WEATHER ROUNDUP FOR MAINE AND NEW HAMPSHIRE
NATIONAL WEATHER SERVICE GRAY ME
700 PM EST SUN FEB 07 2016

MEZ002-005-006-010-012-015-018-020-021-024-026-027-029-080100-
MAINE

CITY           SKY/WX    TMP DP  RH WIND       PRES   REMARKS
PORTLAND       CLEAR     35  27  72 NE6       30.16S
6HR MIN TEMP:  34; 6HR MAX TEMP:  44;

SANFORD        CLOUDY    28  23  80 NE5       30.14F
BAR HARBOR     CLOUDY    28  18  64 N7        30.21R
WISCASSET      CLEAR     28  24  85 CALM      30.19S
6HR MIN TEMP:  28; 6HR MAX TEMP:  43;

ROCKLAND       CLEAR     33  22  63 NE5       30.18S
FRYEBURG       CLOUDY    27  22  81 SW3       30.15S
6HR MIN TEMP:  26; 6HR MAX TEMP:  42;

LEWISTONAUBURN CLEAR     28  19  69 NE3       30.15S
AUGUSTA        PTCLDY    31  13  47 NE9       30.17S
6HR MIN TEMP:  30; 6HR MAX TEMP:  39;

WATERVILLE     PTCLDY    30  13  49 NE9       30.15S
BANGOR         CLEAR     26   6  42 N14       30.21R WCI  14
6HR MIN TEMP:  26; 6HR MAX TEMP:  37;

GREENVILLE       N/A     18  -7  32 N8        30.13R
6HR MIN TEMP:  18; 6HR MAX TEMP:  23;

MILLINOCKET    CLEAR     20  -6  31 NE5       30.25S
6HR MIN TEMP:  20; 6HR MAX TEMP:  30;

HOULTON        CLOUDY    10  -6  48 N7        30.26R
6HR MIN TEMP:  10; 6HR MAX TEMP:  26;

PRESQUE ISLE   CLOUDY    12  -4  48 N7        30.29R
6HR MIN TEMP:  12; 6HR MAX TEMP:  22;

FRENCHVILLE    CLOUDY     9  -8  46 NW10      30.25R WCI  -5
6HR MIN TEMP:   8; 6HR MAX TEMP:  14; 6HR PCP: TRACE;

CARIBOU        CLOUDY    12  -7  42 NW5       30.27R
6HR MIN TEMP:  12; 6HR MAX TEMP:  18;

$$

NHZ002-005-008-009-011-012-014-080100-
NEW HAMPSHIRE

CITY           SKY/WX    TMP DP  RH WIND       PRES   REMARKS
PORTSMOUTH     PTCLDY    36  24  63 E5        30.12F
ROCHESTER      CLEAR     32  23  69 CALM      30.12F
6HR MIN TEMP:  32; 6HR MAX TEMP:  42;

NASHUA         CLEAR     30  27  86 CALM      30.11F
MANCHESTER     PTCLDY    36  23  59 E6        30.09F
6HR MIN TEMP:  36; 6HR MAX TEMP:  45;

CONCORD        CLEAR     33  21  61 NE6       30.11S
6HR MIN TEMP:  32; 6HR MAX TEMP:  45;

LACONIA        CLEAR     27  21  80 CALM      30.12F
PLYMOUTH       FAIR      28  23  82 CALM      30.12S
BERLIN         CLOUDY    25  17  72 N5        30.12F
6HR MIN TEMP:  25; 6HR MAX TEMP:  35;

WHITEFIELD     CLOUDY    28  20  71 N6        30.11F
6HR MIN TEMP:  25; 6HR MAX TEMP:  37;

JAFFREY        CLEAR     26  23  88 CALM      30.06F
6HR MIN TEMP:  26; 6HR MAX TEMP:  43;

KEENE          CLEAR     37  19  48 CALM      30.07F
LEBANON        PTCLDY    28  21  75 NE7       30.09F
6HR MIN TEMP:  28; 6HR MAX TEMP:  43;

MT WASHINGTON  PTCLDY    18   7  62 W10         N/A  WCI   6
                   6HR MAX TEMP:  20; 6HR PCP: TRACE;

$$

VTZ005-007-008-080100-
VERMONT

CITY           SKY/WX    TMP DP  RH WIND       PRES   REMARKS
ST JOHNSBURY     N/A     29  21  72 MISG      30.11F
MONTPELIER     CLOUDY    27  21  78 CALM      30.12F
BURLINGTON     FAIR      23  13  65 NW8       30.14S
$$

MAZ007-012-024-CTZ003-RIZ002-NYZ038-NYZ072-080100-
SOUTHERN NEW ENGLAND AND NY

CITY           SKY/WX    TMP DP  RH WIND       PRES   REMARKS
BOSTON         PTCLDY    38  28  67 E10       30.12S
WORCESTER      CLEAR     34  22  61 E7        30.06S
NANTUCKET      CLOUDY    39  31  72 NE7       30.09R
PROVIDENCE     CLOUDY    36  24  62 NE9       30.09F
HARTFORD       PTCLDY    32  22  66 CALM      30.05S
ALBANY         MOCLDY    37  20  50 N7        30.04F
NEW YORK CITY  CLOUDY    40  31  70 NE12      30.02S
$$

ANZ081-ANZ082-ANZ150-NHZ014-MEZ023>029-080100-
COASTAL MARINE OBSERVATIONS

STATION/POSITION TIME  TEMP    WIND        PRES    WAVE
                       AIR SEA DIR/SP/G            HT/PER
                 (UTC) (F)     (DEG/KT/KT) (MB)    (FT/S)
MOUNT DESERT ROC 0000   37     360/ 16/ 18 1022.3R
MATINICUS ROCK   0000           50/ 15/ 16 1021.9R
ISLE OF SHOALS   0000   40      70/ 17/ 19 1019.3F
JEFFREYS LEDGE   2304      44                N/A     2/10
CASHES LEDGE BUO 2350   40 44   60/ 14/ 17 1021.1R   2/10
GEORGES BANK BUO 2350   43 45              1019.2F   4/10
$$

.............KEY..............
   WCI - WIND CHILL
   TC  - TEMPERATURE IN CELSIUS
   VSB - VISIBILITY IN MILES
   HX  - HEAT INDEX
   FAIR- INDICATES FEW OR NO CLOUDS BELOW 12,000 FT, WITH NO
         SIGNIFICANT WEATHER AND/OR OBSTRUCTIONS TO VISIBILITY.





USA.gov is the U.S. government's official web portal to all federal, state and local government web resources and services.